ONEWEB-0569 (55148 NORAD) Tracking and Keplerian Element Data

This shows tracking and keplerian element data for the satellite.

Feedback or suggestion? Click here.




ElementValue
Catalog55148
NameONEWEB-0569
Epoch Orbit1119
Epoch Day84.88691915
Epoch Year2023
RAAN253.6979
Inclination86.6214
Eccentricity0.0011356
Argument of Perigee327.3742
Mean Anonmoly32.6769
Mean Motion14.65733944
Decay Rate1.824E-05
L11 55148U 23004J 23084.88691915 .00001824 00000+0 33062-3 0 9997
L22 55148 86.6214 253.6979 0011356 327.3742 32.6769 14.65733944 11198



Live tracking and technical data element details for ONEWEB-0569 (NORAD 55148). ONEWEB-0569 can be tracked NOW for your location showing map with azimuth and elevation plus other details from your city location.







IsCatalogInMostPopularTable: catalog: 55148, numindb: 9
Update: records affected: 1



GetName: 55148 ONEWEB-0569

Hit Count: updated at: Mon, 27 Mar 2023 06:56:18 GMT